Location: Zagreb
(45.8000°N, 16.0000°E)
Time: 20:02:38
(UTC+02:00)

A-11 Canister half - Pass Details

Date: 15 August 2022
Orbit: 1524 x 1684 km, 47.3° (Epoch: 05 October)

Event Time Altitude Azimuth Distance (km) Brightness Sun altitude
Rises 05:07:04 0° 223° (SW) 4,879 - -8.5°
Exits shadow 05:09:14 - 220° (SW) 4,220 10.7 -8.1°
Reaches altitude 10° 05:10:16 10° 219° (SW) 3,909 10.5 -8.0°
Maximum altitude 05:19:58 56° 145° (SE) 1,951 9.6 -6.5°
Drops below altitude 10° 05:29:45 10° 71° (ENE) 3,947 13.0 -5.0°
Sets 05:32:59 0° 68° (ENE) 4,929 14.7 -4.5°
